Weather in Verhniy Tagil

Russia / Sverdlovsk Oblast     57°22′18″N   59°56′02″E
temp.,
°C
wind,
m/s
gust,
m/s
humid.,
%
clouds,
%
prec.,
mm/h
press.,
hPa
HPBL,
m
25 july, sun
sun2523:00+14w228643 0.1 100742
02:00+13w1492100 0.1 1008157
05:00+12nnw269854 0.9 1009399
08:00+11n368633 0.0 1012518
11:00+16nnw46460 0.0 10131491
14:00+18nw45340 0.0 10142113
17:00+18nw56349 0.0 10152238
20:00+14wnw365213 0.0 1016225
26 july, mon
mon2623:00+11nw235979 0.0 101866
02:00+10w1164100 0.0 101926
05:00+10w2766100 0.0 1019194
08:00+11w2860100 0.0 1019387
11:00+16wnw573999 0.0 10182468
14:00+16w464699 0.0 10181967
17:00+17w584790 0.0 10171846
20:00+15w495882 0.0 1016772
27 july, tue
tue2723:00+10wsw398431 0.0 1017202
02:00+8wsw3119393 0.0 1016234
05:00+9wsw312825 0.0 1014320
08:00+12wsw41275100 0.0 1013635
11:00+11wsw4109795 2.1 1012625
14:00+15w587998 0.4 10111041
17:00+16nw4870100 0.6 10101100
20:00+14nw486819 0.2 1010859
28 july, wed
wed2823:00+7wnw25905 0.2 101280
02:00+6w22965 0.0 101229
05:00+5wsw299640 0.0 1012204
08:00+11w5117079 0.0 1010804
11:00+14wnw71151100 0.3 10091914
14:00+12nw596057 0.2 10101400
17:00+12nw575570 0.3 10111594
20:00+11nw37595 0.0 1012720
29 july, thu
thu2923:00+6wsw227795 0.0 101217
02:00+7wsw2379100 0.0 101169
05:00+8s1472100 0.0 1010182
08:00+9sw399496 1.4 1009296
11:00+16w4862100 1.6 1008909
14:00+16wsw486223 0.1 1008906
17:00+21w6949100 0.1 10061693
20:00+14sw613937 4.0 1006549